owner,sensor,date,latitude,longitude,vertical_datum,sea_water_practical_salinity,qcFlag 
TABS,ioos:station:wmo:42043:1,2015-06-01T00:00:00Z,28.9818,-94.9186,2.0,23.36,11111222 
TABS,ioos:station:wmo:42043:1,2015-06-01T00:30:00Z,28.9818,-94.9186,2.0,23.04,11111222 
TABS,ioos:station:wmo:42043:1,2015-06-01T01:00:00Z,28.9818,-94.9186,2.0,24.28,11111222 
TABS,ioos:station:wmo:42043:1,2015-06-01T01:30:00Z,28.9818,-94.9186,2.0,24.51,11111222 
TABS,ioos:station:wmo:42043:1,2015-06-01T02:00:00Z,28.9818,-94.9186,2.0,24.14,11111222 
TABS,ioos:station:wmo:42043:1,2015-06-01T02:30:00Z,28.9818,-94.9186,2.0,23.55,11111222 
TABS,ioos:station:wmo:42043:1,2015-06-01T03:00:00Z,28.9818,-94.9186,2.0,24.03,11111222 
TABS,ioos:station:wmo:42043:1,2015-06-01T03:30:00Z,28.9818,-94.9186,2.0,23.8,11111222 
TABS,ioos:station:wmo:42043:1,2015-06-01T04:00:00Z,28.9818,-94.9186,2.0,24.15,11111222 
TABS,ioos:station:wmo:42043:1,2015-06-01T04:30:00Z,28.9818,-94.9186,2.0,24.33,11111222 
TABS,ioos:station:wmo:42043:1,2015-06-01T05:00:00Z,28.9818,-94.9186,2.0,24.18,11111222 
TABS,ioos:station:wmo:42043:1,2015-06-01T05:30:00Z,28.9818,-94.9186,2.0,24.25,11111222 
TABS,ioos:station:wmo:42043:1,2015-06-01T06:00:00Z,28.9818,-94.9186,2.0,24.22,11111222 
TABS,ioos:station:wmo:42043:1,2015-06-01T06:30:00Z,28.9818,-94.9186,2.0,24.43,11111222 
TABS,ioos:station:wmo:42043:1,2015-06-01T07:00:00Z,28.9818,-94.9186,2.0,24.27,11111222 
TABS,ioos:station:wmo:42043:1,2015-06-01T07:30:00Z,28.9818,-94.9186,2.0,24.03,11111222 
TABS,ioos:station:wmo:42043:1,2015-06-01T08:00:00Z,28.9818,-94.9186,2.0,23.71,11111222 
TABS,ioos:station:wmo:42043:1,2015-06-01T08:30:00Z,28.9818,-94.9186,2.0,23.21,11111222 
TABS,ioos:station:wmo:42043:1,2015-06-01T09:00:00Z,28.9818,-94.9186,2.0,22.94,11111222 
TABS,ioos:station:wmo:42043:1,2015-06-01T09:30:00Z,28.9818,-94.9186,2.0,22.71,11111222 
TABS,ioos:station:wmo:42043:1,2015-06-01T10:00:00Z,28.9818,-94.9186,2.0,22.49,11111222 
TABS,ioos:station:wmo:42043:1,2015-06-01T10:30:00Z,28.9818,-94.9186,2.0,22.39,11111222 
TABS,ioos:station:wmo:42043:1,2015-06-01T11:00:00Z,28.9818,-94.9186,2.0,22.04,11111222 
TABS,ioos:station:wmo:42043:1,2015-06-01T11:30:00Z,28.9818,-94.9186,2.0,21.86,11111222 
TABS,ioos:station:wmo:42043:1,2015-06-01T12:00:00Z,28.9818,-94.9186,2.0,21.75,11111222 
TABS,ioos:station:wmo:42043:1,2015-06-01T12:30:00Z,28.9818,-94.9186,2.0,21.82,11111222 
TABS,ioos:station:wmo:42043:1,2015-06-01T13:00:00Z,28.9818,-94.9186,2.0,20.67,11111222 
TABS,ioos:station:wmo:42043:1,2015-06-01T13:30:00Z,28.9818,-94.9186,2.0,19.84,11111222 
TABS,ioos:station:wmo:42043:1,2015-06-01T14:00:00Z,28.9818,-94.9186,2.0,19.31,11111222 
TABS,ioos:station:wmo:42043:1,2015-06-01T14:30:00Z,28.9818,-94.9186,2.0,19.28,11111222 
TABS,ioos:station:wmo:42043:1,2015-06-01T15:00:00Z,28.9818,-94.9186,2.0,18.67,11111222 
TABS,ioos:station:wmo:42043:1,2015-06-01T15:30:00Z,28.9818,-94.9186,2.0,18.83,11111222 
TABS,ioos:station:wmo:42043:1,2015-06-01T16:00:00Z,28.9818,-94.9186,2.0,19.2,11111222 
TABS,ioos:station:wmo:42043:1,2015-06-01T16:30:00Z,28.9818,-94.9186,2.0,19.96,11111222 
TABS,ioos:station:wmo:42043:1,2015-06-01T17:00:00Z,28.9818,-94.9186,2.0,19.97,11111222 
TABS,ioos:station:wmo:42043:1,2015-06-01T17:30:00Z,28.9818,-94.9186,2.0,21.31,11111222 
TABS,ioos:station:wmo:42043:1,2015-06-01T18:00:00Z,28.9818,-94.9186,2.0,22.79,11111222 
TABS,ioos:station:wmo:42043:1,2015-06-01T18:30:00Z,28.9818,-94.9186,2.0,20.63,11111222 
TABS,ioos:station:wmo:42043:1,2015-06-01T19:00:00Z,28.9818,-94.9186,2.0,19.98,11111222 
TABS,ioos:station:wmo:42043:1,2015-06-01T19:30:00Z,28.9818,-94.9186,2.0,20.18,11111222 
TABS,ioos:station:wmo:42043:1,2015-06-01T20:00:00Z,28.9818,-94.9186,2.0,20.79,11111222 
TABS,ioos:station:wmo:42043:1,2015-06-01T20:30:00Z,28.9818,-94.9186,2.0,21.12,11111222 
TABS,ioos:station:wmo:42043:1,2015-06-01T21:00:00Z,28.9818,-94.9186,2.0,21.44,11111222 
TABS,ioos:station:wmo:42043:1,2015-06-01T21:30:00Z,28.9818,-94.9186,2.0,22.36,11111222 
TABS,ioos:station:wmo:42043:1,2015-06-01T22:00:00Z,28.9818,-94.9186,2.0,22.71,11111222 
TABS,ioos:station:wmo:42043:1,2015-06-01T22:30:00Z,28.9818,-94.9186,2.0,23.66,11111222 
TABS,ioos:station:wmo:42043:1,2015-06-01T23:00:00Z,28.9818,-94.9186,2.0,23.77,11111222 
TABS,ioos:station:wmo:42043:1,2015-06-01T23:30:00Z,28.9818,-94.9186,2.0,23.3,11111222 
TABS,ioos:station:wmo:42043:1,2015-06-02T00:00:00Z,28.9818,-94.9186,2.0,23.62,11111222 
TABS,ioos:station:wmo:42043:1,2015-06-02T00:30:00Z,28.9818,-94.9186,2.0,24.11,11111222 
TABS,ioos:station:wmo:42043:1,2015-06-02T01:00:00Z,28.9818,-94.9186,2.0,24.54,11111222 
TABS,ioos:station:wmo:42043:1,2015-06-02T01:30:00Z,28.9818,-94.9186,2.0,24.98,11111222 
TABS,ioos:station:wmo:42043:1,2015-06-02T02:00:00Z,28.9818,-94.9186,2.0,25.33,11111222 
TABS,ioos:station:wmo:42043:1,2015-06-02T02:30:00Z,28.9818,-94.9186,2.0,25.6,11111222 
TABS,ioos:station:wmo:42043:1,2015-06-02T03:00:00Z,28.9818,-94.9186,2.0,25.88,11111222 
TABS,ioos:station:wmo:42043:1,2015-06-02T03:30:00Z,28.9818,-94.9186,2.0,25.5,11111222 
TABS,ioos:station:wmo:42043:1,2015-06-02T04:00:00Z,28.9818,-94.9186,2.0,25.3,11111222 
TABS,ioos:station:wmo:42043:1,2015-06-02T04:30:00Z,28.9818,-94.9186,2.0,25.03,11111222 
TABS,ioos:station:wmo:42043:1,2015-06-02T05:00:00Z,28.9818,-94.9186,2.0,25.07,11111222 
TABS,ioos:station:wmo:42043:1,2015-06-02T05:30:00Z,28.9818,-94.9186,2.0,24.81,11111222 
TABS,ioos:station:wmo:42043:1,2015-06-02T06:00:00Z,28.9818,-94.9186,2.0,24.57,11111222 
TABS,ioos:station:wmo:42043:1,2015-06-02T06:30:00Z,28.9818,-94.9186,2.0,24.54,11111222 
TABS,ioos:station:wmo:42043:1,2015-06-02T07:00:00Z,28.9818,-94.9186,2.0,24.36,11111222 
TABS,ioos:station:wmo:42043:1,2015-06-02T07:30:00Z,28.9818,-94.9186,2.0,24.2,11111222 
TABS,ioos:station:wmo:42043:1,2015-06-02T08:00:00Z,28.9818,-94.9186,2.0,23.76,11111222 
TABS,ioos:station:wmo:42043:1,2015-06-02T08:30:00Z,28.9818,-94.9186,2.0,23.64,11111222 
TABS,ioos:station:wmo:42043:1,2015-06-02T09:00:00Z,28.9818,-94.9186,2.0,23.53,11111222 
TABS,ioos:station:wmo:42043:1,2015-06-02T09:30:00Z,28.9818,-94.9186,2.0,23.1,11111222 
TABS,ioos:station:wmo:42043:1,2015-06-02T10:00:00Z,28.9818,-94.9186,2.0,22.33,11111222 
TABS,ioos:station:wmo:42043:1,2015-06-02T10:30:00Z,28.9818,-94.9186,2.0,21.89,11111222 
TABS,ioos:station:wmo:42043:1,2015-06-02T11:00:00Z,28.9818,-94.9186,2.0,21.28,11111222 
TABS,ioos:station:wmo:42043:1,2015-06-02T11:30:00Z,28.9818,-94.9186,2.0,20.77,11111222 
TABS,ioos:station:wmo:42043:1,2015-06-02T12:00:00Z,28.9818,-94.9186,2.0,20.61,11111222 
TABS,ioos:station:wmo:42043:1,2015-06-02T12:30:00Z,28.9818,-94.9186,2.0,20.66,11111222 
TABS,ioos:station:wmo:42043:1,2015-06-02T13:00:00Z,28.9818,-94.9186,2.0,20.45,11111222 
TABS,ioos:station:wmo:42043:1,2015-06-02T13:30:00Z,28.9818,-94.9186,2.0,20.68,11111222 
TABS,ioos:station:wmo:42043:1,2015-06-02T14:00:00Z,28.9818,-94.9186,2.0,20.14,11111222 
TABS,ioos:station:wmo:42043:1,2015-06-02T14:30:00Z,28.9818,-94.9186,2.0,20.08,11111222 
TABS,ioos:station:wmo:42043:1,2015-06-02T15:00:00Z,28.9818,-94.9186,2.0,20.32,11111222 
TABS,ioos:station:wmo:42043:1,2015-06-02T15:30:00Z,28.9818,-94.9186,2.0,20.61,11111222 
TABS,ioos:station:wmo:42043:1,2015-06-02T16:00:00Z,28.9818,-94.9186,2.0,21.09,11111222 
TABS,ioos:station:wmo:42043:1,2015-06-02T16:30:00Z,28.9818,-94.9186,2.0,21.79,11111222 
TABS,ioos:station:wmo:42043:1,2015-06-02T17:00:00Z,28.9818,-94.9186,2.0,21.95,11111222 
TABS,ioos:station:wmo:42043:1,2015-06-02T17:30:00Z,28.9818,-94.9186,2.0,22.24,11111222 
TABS,ioos:station:wmo:42043:1,2015-06-02T18:00:00Z,28.9818,-94.9186,2.0,22.93,11111222 
TABS,ioos:station:wmo:42043:1,2015-06-02T18:30:00Z,28.9818,-94.9186,2.0,23.74,11111222 
TABS,ioos:station:wmo:42043:1,2015-06-02T19:00:00Z,28.9818,-94.9186,2.0,22.77,11111222 
TABS,ioos:station:wmo:42043:1,2015-06-02T19:30:00Z,28.9818,-94.9186,2.0,22.53,11111222 
TABS,ioos:station:wmo:42043:1,2015-06-02T20:00:00Z,28.9818,-94.9186,2.0,22.96,11111222 
TABS,ioos:station:wmo:42043:1,2015-06-02T20:30:00Z,28.9818,-94.9186,2.0,23.09,11111222 
TABS,ioos:station:wmo:42043:1,2015-06-02T21:00:00Z,28.9818,-94.9186,2.0,23.23,11111222 
TABS,ioos:station:wmo:42043:1,2015-06-02T21:30:00Z,28.9818,-94.9186,2.0,23.61,11111222 
TABS,ioos:station:wmo:42043:1,2015-06-02T22:00:00Z,28.9818,-94.9186,2.0,24.37,11111222 
TABS,ioos:station:wmo:42043:1,2015-06-02T22:30:00Z,28.9818,-94.9186,2.0,24.63,11111222 
TABS,ioos:station:wmo:42043:1,2015-06-02T23:00:00Z,28.9818,-94.9186,2.0,26.88,11111222 
TABS,ioos:station:wmo:42043:1,2015-06-02T23:30:00Z,28.9818,-94.9186,2.0,26.18,11111222 
TABS,ioos:station:wmo:42043:1,2015-06-03T00:00:00Z,28.9818,-94.9186,2.0,26.62,11111222 
TABS,ioos:station:wmo:42043:1,2015-06-03T00:30:00Z,28.9818,-94.9186,2.0,26.01,11111222 
TABS,ioos:station:wmo:42043:1,2015-06-03T01:00:00Z,28.9818,-94.9186,2.0,25.06,11111222 
TABS,ioos:station:wmo:42043:1,2015-06-03T01:30:00Z,28.9818,-94.9186,2.0,24.96,11111222 
TABS,ioos:station:wmo:42043:1,2015-06-03T02:00:00Z,28.9818,-94.9186,2.0,24.36,11111222 
TABS,ioos:station:wmo:42043:1,2015-06-03T02:30:00Z,28.9818,-94.9186,2.0,24.44,11111222 
TABS,ioos:station:wmo:42043:1,2015-06-03T03:00:00Z,28.9818,-94.9186,2.0,24.46,11111222 
TABS,ioos:station:wmo:42043:1,2015-06-03T03:30:00Z,28.9818,-94.9186,2.0,24.96,11111222 
TABS,ioos:station:wmo:42043:1,2015-06-03T04:00:00Z,28.9818,-94.9186,2.0,25.21,11111222 
TABS,ioos:station:wmo:42043:1,2015-06-03T04:30:00Z,28.9818,-94.9186,2.0,25.19,11111222 
TABS,ioos:station:wmo:42043:1,2015-06-03T05:00:00Z,28.9818,-94.9186,2.0,25.43,11111222 
TABS,ioos:station:wmo:42043:1,2015-06-03T05:30:00Z,28.9818,-94.9186,2.0,25.69,11111222 
TABS,ioos:station:wmo:42043:1,2015-06-03T06:00:00Z,28.9818,-94.9186,2.0,25.93,11111222 
TABS,ioos:station:wmo:42043:1,2015-06-03T06:30:00Z,28.9818,-94.9186,2.0,26.08,11111222 
TABS,ioos:station:wmo:42043:1,2015-06-03T07:00:00Z,28.9818,-94.9186,2.0,26.05,11111222 
TABS,ioos:station:wmo:42043:1,2015-06-03T07:30:00Z,28.9818,-94.9186,2.0,26.08,11111222 
TABS,ioos:station:wmo:42043:1,2015-06-03T08:00:00Z,28.9818,-94.9186,2.0,25.97,11111222 
TABS,ioos:station:wmo:42043:1,2015-06-03T08:30:00Z,28.9818,-94.9186,2.0,25.88,11111222 
TABS,ioos:station:wmo:42043:1,2015-06-03T09:00:00Z,28.9818,-94.9186,2.0,26.05,11111222 
TABS,ioos:station:wmo:42043:1,2015-06-03T09:30:00Z,28.9818,-94.9186,2.0,26.03,11111222 
TABS,ioos:station:wmo:42043:1,2015-06-03T10:00:00Z,28.9818,-94.9186,2.0,25.77,11111222 
TABS,ioos:station:wmo:42043:1,2015-06-03T10:30:00Z,28.9818,-94.9186,2.0,25.64,11111222 
TABS,ioos:station:wmo:42043:1,2015-06-03T11:00:00Z,28.9818,-94.9186,2.0,25.34,11111222 
TABS,ioos:station:wmo:42043:1,2015-06-03T11:30:00Z,28.9818,-94.9186,2.0,25.11,11111222 
TABS,ioos:station:wmo:42043:1,2015-06-03T12:00:00Z,28.9818,-94.9186,2.0,25.05,11111222 
TABS,ioos:station:wmo:42043:1,2015-06-03T12:30:00Z,28.9818,-94.9186,2.0,25.06,11111222 
TABS,ioos:station:wmo:42043:1,2015-06-03T13:00:00Z,28.9818,-94.9186,2.0,25.12,11111222 
TABS,ioos:station:wmo:42043:1,2015-06-03T13:30:00Z,28.9818,-94.9186,2.0,24.53,11111222 
TABS,ioos:station:wmo:42043:1,2015-06-03T14:00:00Z,28.9818,-94.9186,2.0,24.37,11111222 
TABS,ioos:station:wmo:42043:1,2015-06-03T14:30:00Z,28.9818,-94.9186,2.0,23.63,11111222 
TABS,ioos:station:wmo:42043:1,2015-06-03T15:00:00Z,28.9818,-94.9186,2.0,23.82,11111222 
TABS,ioos:station:wmo:42043:1,2015-06-03T15:30:00Z,28.9818,-94.9186,2.0,23.99,11111222 
TABS,ioos:station:wmo:42043:1,2015-06-03T16:00:00Z,28.9818,-94.9186,2.0,23.99,11111222 
TABS,ioos:station:wmo:42043:1,2015-06-03T16:30:00Z,28.9818,-94.9186,2.0,24.0,11111222 
TABS,ioos:station:wmo:42043:1,2015-06-03T17:00:00Z,28.9818,-94.9186,2.0,23.87,11111222 
TABS,ioos:station:wmo:42043:1,2015-06-03T17:30:00Z,28.9818,-94.9186,2.0,24.23,11111222 
TABS,ioos:station:wmo:42043:1,2015-06-03T18:00:00Z,28.9818,-94.9186,2.0,24.23,11111222 
TABS,ioos:station:wmo:42043:1,2015-06-03T18:30:00Z,28.9818,-94.9186,2.0,23.92,11111222 
TABS,ioos:station:wmo:42043:1,2015-06-03T19:00:00Z,28.9818,-94.9186,2.0,24.61,11111222 
TABS,ioos:station:wmo:42043:1,2015-06-03T19:30:00Z,28.9818,-94.9186,2.0,24.87,11111222 
TABS,ioos:station:wmo:42043:1,2015-06-03T20:00:00Z,28.9818,-94.9186,2.0,24.3,11111222 
TABS,ioos:station:wmo:42043:1,2015-06-03T20:30:00Z,28.9818,-94.9186,2.0,23.73,11111222 
TABS,ioos:station:wmo:42043:1,2015-06-03T21:00:00Z,28.9818,-94.9186,2.0,22.11,11111222 
TABS,ioos:station:wmo:42043:1,2015-06-03T21:30:00Z,28.9818,-94.9186,2.0,22.27,11111222 
TABS,ioos:station:wmo:42043:1,2015-06-03T22:00:00Z,28.9818,-94.9186,2.0,21.16,11111222 
TABS,ioos:station:wmo:42043:1,2015-06-03T22:30:00Z,28.9818,-94.9186,2.0,21.85,11111222 
TABS,ioos:station:wmo:42043:1,2015-06-03T23:00:00Z,28.9818,-94.9186,2.0,22.23,11111222 
TABS,ioos:station:wmo:42043:1,2015-06-03T23:30:00Z,28.9818,-94.9186,2.0,21.51,11111222 
TABS,ioos:station:wmo:42043:1,2015-06-04T00:00:00Z,28.9818,-94.9186,2.0,21.68,11111222 
TABS,ioos:station:wmo:42043:1,2015-06-04T00:30:00Z,28.9818,-94.9186,2.0,21.87,11111222 
TABS,ioos:station:wmo:42043:1,2015-06-04T01:00:00Z,28.9818,-94.9186,2.0,22.2,11111222 
TABS,ioos:station:wmo:42043:1,2015-06-04T01:30:00Z,28.9818,-94.9186,2.0,22.06,11111222 
TABS,ioos:station:wmo:42043:1,2015-06-04T02:00:00Z,28.9818,-94.9186,2.0,22.64,11111222 
TABS,ioos:station:wmo:42043:1,2015-06-04T02:30:00Z,28.9818,-94.9186,2.0,22.72,11111222 
TABS,ioos:station:wmo:42043:1,2015-06-04T03:00:00Z,28.9818,-94.9186,2.0,22.87,11111222 
TABS,ioos:station:wmo:42043:1,2015-06-04T03:30:00Z,28.9818,-94.9186,2.0,22.75,11111222 
TABS,ioos:station:wmo:42043:1,2015-06-04T04:00:00Z,28.9818,-94.9186,2.0,22.79,11111222 
TABS,ioos:station:wmo:42043:1,2015-06-04T04:30:00Z,28.9818,-94.9186,2.0,23.05,11111222 
TABS,ioos:station:wmo:42043:1,2015-06-04T05:00:00Z,28.9818,-94.9186,2.0,22.79,11111222 
TABS,ioos:station:wmo:42043:1,2015-06-04T05:30:00Z,28.9818,-94.9186,2.0,23.1,11111222 
TABS,ioos:station:wmo:42043:1,2015-06-04T06:00:00Z,28.9818,-94.9186,2.0,22.78,11111222 
TABS,ioos:station:wmo:42043:1,2015-06-04T06:30:00Z,28.9818,-94.9186,2.0,22.27,11111222 
TABS,ioos:station:wmo:42043:1,2015-06-04T07:00:00Z,28.9818,-94.9186,2.0,22.52,11111222 
TABS,ioos:station:wmo:42043:1,2015-06-04T07:30:00Z,28.9818,-94.9186,2.0,22.34,11111222 
TABS,ioos:station:wmo:42043:1,2015-06-04T08:00:00Z,28.9818,-94.9186,2.0,22.34,11111222 
TABS,ioos:station:wmo:42043:1,2015-06-04T08:30:00Z,28.9818,-94.9186,2.0,22.14,11111222 
TABS,ioos:station:wmo:42043:1,2015-06-04T09:00:00Z,28.9818,-94.9186,2.0,22.28,11111222 
TABS,ioos:station:wmo:42043:1,2015-06-04T09:30:00Z,28.9818,-94.9186,2.0,22.41,11111222 
TABS,ioos:station:wmo:42043:1,2015-06-04T10:00:00Z,28.9818,-94.9186,2.0,22.42,11111222 
TABS,ioos:station:wmo:42043:1,2015-06-04T10:30:00Z,28.9818,-94.9186,2.0,22.65,11111222 
TABS,ioos:station:wmo:42043:1,2015-06-04T11:00:00Z,28.9818,-94.9186,2.0,22.62,11111222 
TABS,ioos:station:wmo:42043:1,2015-06-04T11:30:00Z,28.9818,-94.9186,2.0,23.07,11111222 
TABS,ioos:station:wmo:42043:1,2015-06-04T12:00:00Z,28.9818,-94.9186,2.0,23.01,11111222 
TABS,ioos:station:wmo:42043:1,2015-06-04T12:30:00Z,28.9818,-94.9186,2.0,22.82,11111222 
TABS,ioos:station:wmo:42043:1,2015-06-04T13:00:00Z,28.9818,-94.9186,2.0,22.65,11111222 
TABS,ioos:station:wmo:42043:1,2015-06-04T13:30:00Z,28.9818,-94.9186,2.0,22.52,11111222 
TABS,ioos:station:wmo:42043:1,2015-06-04T14:00:00Z,28.9818,-94.9186,2.0,22.43,11111222 
TABS,ioos:station:wmo:42043:1,2015-06-04T14:30:00Z,28.9818,-94.9186,2.0,22.37,11111222 
TABS,ioos:station:wmo:42043:1,2015-06-04T15:00:00Z,28.9818,-94.9186,2.0,22.3,11111222 
TABS,ioos:station:wmo:42043:1,2015-06-04T15:30:00Z,28.9818,-94.9186,2.0,22.31,11111222 
TABS,ioos:station:wmo:42043:1,2015-06-04T16:00:00Z,28.9818,-94.9186,2.0,22.23,11111222 
TABS,ioos:station:wmo:42043:1,2015-06-04T16:30:00Z,28.9818,-94.9186,2.0,22.26,11111222 
TABS,ioos:station:wmo:42043:1,2015-06-04T17:00:00Z,28.9818,-94.9186,2.0,22.22,11111222 
TABS,ioos:station:wmo:42043:1,2015-06-04T17:30:00Z,28.9818,-94.9186,2.0,22.21,11111222 
TABS,ioos:station:wmo:42043:1,2015-06-04T18:00:00Z,28.9818,-94.9186,2.0,22.2,11111222 
TABS,ioos:station:wmo:42043:1,2015-06-04T18:30:00Z,28.9818,-94.9186,2.0,22.19,11111222 
TABS,ioos:station:wmo:42043:1,2015-06-04T19:00:00Z,28.9818,-94.9186,2.0,22.18,11111222 
TABS,ioos:station:wmo:42043:1,2015-06-04T19:30:00Z,28.9818,-94.9186,2.0,21.98,11111222 
TABS,ioos:station:wmo:42043:1,2015-06-04T20:00:00Z,28.9818,-94.9186,2.0,21.55,11111222 
TABS,ioos:station:wmo:42043:1,2015-06-04T20:30:00Z,28.9818,-94.9186,2.0,21.27,11111222 
TABS,ioos:station:wmo:42043:1,2015-06-04T21:00:00Z,28.9818,-94.9186,2.0,21.1,11111222 
TABS,ioos:station:wmo:42043:1,2015-06-04T21:30:00Z,28.9818,-94.9186,2.0,21.68,11111222 
TABS,ioos:station:wmo:42043:1,2015-06-04T22:00:00Z,28.9818,-94.9186,2.0,21.3,11111222 
TABS,ioos:station:wmo:42043:1,2015-06-04T22:30:00Z,28.9818,-94.9186,2.0,19.41,11111222 
TABS,ioos:station:wmo:42043:1,2015-06-04T23:00:00Z,28.9818,-94.9186,2.0,19.38,11111222 
TABS,ioos:station:wmo:42043:1,2015-06-04T23:30:00Z,28.9818,-94.9186,2.0,18.67,11111222 
TABS,ioos:station:wmo:42043:1,2015-06-05T00:00:00Z,28.9818,-94.9186,2.0,18.6,11111222 
TABS,ioos:station:wmo:42043:1,2015-06-05T00:30:00Z,28.9818,-94.9186,2.0,19.49,11111222 
TABS,ioos:station:wmo:42043:1,2015-06-05T01:00:00Z,28.9818,-94.9186,2.0,21.2,11111222 
TABS,ioos:station:wmo:42043:1,2015-06-05T01:30:00Z,28.9818,-94.9186,2.0,21.35,11111222 
TABS,ioos:station:wmo:42043:1,2015-06-05T02:00:00Z,28.9818,-94.9186,2.0,21.54,11111222 
TABS,ioos:station:wmo:42043:1,2015-06-05T02:30:00Z,28.9818,-94.9186,2.0,21.39,11111222 
TABS,ioos:station:wmo:42043:1,2015-06-05T03:00:00Z,28.9818,-94.9186,2.0,21.68,11111222 
TABS,ioos:station:wmo:42043:1,2015-06-05T03:30:00Z,28.9818,-94.9186,2.0,21.9,11111222 
TABS,ioos:station:wmo:42043:1,2015-06-05T04:00:00Z,28.9818,-94.9186,2.0,22.45,11111222 
TABS,ioos:station:wmo:42043:1,2015-06-05T04:30:00Z,28.9818,-94.9186,2.0,22.6,11111222 
TABS,ioos:station:wmo:42043:1,2015-06-05T05:00:00Z,28.9818,-94.9186,2.0,21.69,11111222 
TABS,ioos:station:wmo:42043:1,2015-06-05T05:30:00Z,28.9818,-94.9186,2.0,22.17,11111222 
TABS,ioos:station:wmo:42043:1,2015-06-05T06:00:00Z,28.9818,-94.9186,2.0,22.77,11111222 
TABS,ioos:station:wmo:42043:1,2015-06-05T06:30:00Z,28.9818,-94.9186,2.0,23.3,11111222 
TABS,ioos:station:wmo:42043:1,2015-06-05T07:00:00Z,28.9818,-94.9186,2.0,23.69,11111222 
TABS,ioos:station:wmo:42043:1,2015-06-05T07:30:00Z,28.9818,-94.9186,2.0,23.74,11111222 
TABS,ioos:station:wmo:42043:1,2015-06-05T08:00:00Z,28.9818,-94.9186,2.0,23.85,11111222 
TABS,ioos:station:wmo:42043:1,2015-06-05T08:30:00Z,28.9818,-94.9186,2.0,24.06,11111222 
TABS,ioos:station:wmo:42043:1,2015-06-05T09:00:00Z,28.9818,-94.9186,2.0,24.37,11111222 
TABS,ioos:station:wmo:42043:1,2015-06-05T09:30:00Z,28.9818,-94.9186,2.0,24.37,11111222 
TABS,ioos:station:wmo:42043:1,2015-06-05T10:00:00Z,28.9818,-94.9186,2.0,24.6,11111222 
TABS,ioos:station:wmo:42043:1,2015-06-05T10:30:00Z,28.9818,-94.9186,2.0,24.58,11111222 
TABS,ioos:station:wmo:42043:1,2015-06-05T11:00:00Z,28.9818,-94.9186,2.0,23.76,11111222 
TABS,ioos:station:wmo:42043:1,2015-06-05T11:30:00Z,28.9818,-94.9186,2.0,23.06,11111222 
TABS,ioos:station:wmo:42043:1,2015-06-05T12:00:00Z,28.9818,-94.9186,2.0,22.68,11111222 
TABS,ioos:station:wmo:42043:1,2015-06-05T12:30:00Z,28.9818,-94.9186,2.0,22.54,11111222 
TABS,ioos:station:wmo:42043:1,2015-06-05T13:00:00Z,28.9818,-94.9186,2.0,22.29,11111222 
TABS,ioos:station:wmo:42043:1,2015-06-05T13:30:00Z,28.9818,-94.9186,2.0,22.41,11111222 
TABS,ioos:station:wmo:42043:1,2015-06-05T14:00:00Z,28.9818,-94.9186,2.0,22.25,11111222 
TABS,ioos:station:wmo:42043:1,2015-06-05T14:30:00Z,28.9818,-94.9186,2.0,21.71,11111222 
TABS,ioos:station:wmo:42043:1,2015-06-05T15:00:00Z,28.9818,-94.9186,2.0,21.5,11111222 
TABS,ioos:station:wmo:42043:1,2015-06-05T15:30:00Z,28.9818,-94.9186,2.0,21.44,11111222 
TABS,ioos:station:wmo:42043:1,2015-06-05T16:00:00Z,28.9818,-94.9186,2.0,21.33,11111222 
TABS,ioos:station:wmo:42043:1,2015-06-05T16:30:00Z,28.9818,-94.9186,2.0,21.24,11111222 
TABS,ioos:station:wmo:42043:1,2015-06-05T17:00:00Z,28.9818,-94.9186,2.0,21.1,11111222 
TABS,ioos:station:wmo:42043:1,2015-06-05T17:30:00Z,28.9818,-94.9186,2.0,21.01,11111222 
TABS,ioos:station:wmo:42043:1,2015-06-05T18:00:00Z,28.9818,-94.9186,2.0,20.86,11111222 
TABS,ioos:station:wmo:42043:1,2015-06-05T18:30:00Z,28.9818,-94.9186,2.0,20.73,11111222 
TABS,ioos:station:wmo:42043:1,2015-06-05T19:00:00Z,28.9818,-94.9186,2.0,20.58,11111222 
TABS,ioos:station:wmo:42043:1,2015-06-05T19:30:00Z,28.9818,-94.9186,2.0,20.45,11111222 
TABS,ioos:station:wmo:42043:1,2015-06-05T20:00:00Z,28.9818,-94.9186,2.0,20.12,11111222 
TABS,ioos:station:wmo:42043:1,2015-06-05T20:30:00Z,28.9818,-94.9186,2.0,19.74,11111222 
TABS,ioos:station:wmo:42043:1,2015-06-05T21:00:00Z,28.9818,-94.9186,2.0,19.9,11111222 
TABS,ioos:station:wmo:42043:1,2015-06-05T21:30:00Z,28.9818,-94.9186,2.0,19.96,11111222 
TABS,ioos:station:wmo:42043:1,2015-06-05T22:00:00Z,28.9818,-94.9186,2.0,20.13,11111222 
TABS,ioos:station:wmo:42043:1,2015-06-05T22:30:00Z,28.9818,-94.9186,2.0,20.51,11111222 
TABS,ioos:station:wmo:42043:1,2015-06-05T23:00:00Z,28.9818,-94.9186,2.0,21.26,11111222 
TABS,ioos:station:wmo:42043:1,2015-06-05T23:30:00Z,28.9818,-94.9186,2.0,21.2,11111222 
TABS,ioos:station:wmo:42043:1,2015-06-06T00:00:00Z,28.9818,-94.9186,2.0,20.29,11111222 
TABS,ioos:station:wmo:42043:1,2015-06-06T00:30:00Z,28.9818,-94.9186,2.0,20.69,11111222 
TABS,ioos:station:wmo:42043:1,2015-06-06T01:00:00Z,28.9818,-94.9186,2.0,20.43,11111222 
TABS,ioos:station:wmo:42043:1,2015-06-06T01:30:00Z,28.9818,-94.9186,2.0,19.0,11111222 
TABS,ioos:station:wmo:42043:1,2015-06-06T02:00:00Z,28.9818,-94.9186,2.0,18.67,11111222 
TABS,ioos:station:wmo:42043:1,2015-06-06T02:30:00Z,28.9818,-94.9186,2.0,18.75,11111222 
TABS,ioos:station:wmo:42043:1,2015-06-06T03:00:00Z,28.9818,-94.9186,2.0,18.74,11111222 
TABS,ioos:station:wmo:42043:1,2015-06-06T03:30:00Z,28.9818,-94.9186,2.0,18.9,11111222 
TABS,ioos:station:wmo:42043:1,2015-06-06T04:00:00Z,28.9818,-94.9186,2.0,18.9,11111222 
TABS,ioos:station:wmo:42043:1,2015-06-06T04:30:00Z,28.9818,-94.9186,2.0,19.32,11111222 
TABS,ioos:station:wmo:42043:1,2015-06-06T05:00:00Z,28.9818,-94.9186,2.0,19.82,11111222 
TABS,ioos:station:wmo:42043:1,2015-06-06T05:30:00Z,28.9818,-94.9186,2.0,20.3,11111222 
TABS,ioos:station:wmo:42043:1,2015-06-06T06:00:00Z,28.9818,-94.9186,2.0,20.54,11111222 
TABS,ioos:station:wmo:42043:1,2015-06-06T06:30:00Z,28.9818,-94.9186,2.0,20.82,11111222 
TABS,ioos:station:wmo:42043:1,2015-06-06T07:00:00Z,28.9818,-94.9186,2.0,21.03,11111222 
TABS,ioos:station:wmo:42043:1,2015-06-06T07:30:00Z,28.9818,-94.9186,2.0,21.34,11111222 
TABS,ioos:station:wmo:42043:1,2015-06-06T08:00:00Z,28.9818,-94.9186,2.0,21.56,11111222 
TABS,ioos:station:wmo:42043:1,2015-06-06T08:30:00Z,28.9818,-94.9186,2.0,21.76,11111222 
TABS,ioos:station:wmo:42043:1,2015-06-06T09:00:00Z,28.9818,-94.9186,2.0,21.85,11111222 
TABS,ioos:station:wmo:42043:1,2015-06-06T09:30:00Z,28.9818,-94.9186,2.0,21.9,11111222 
TABS,ioos:station:wmo:42043:1,2015-06-06T10:00:00Z,28.9818,-94.9186,2.0,21.8,11111222 
TABS,ioos:station:wmo:42043:1,2015-06-06T10:30:00Z,28.9818,-94.9186,2.0,21.74,11111222 
TABS,ioos:station:wmo:42043:1,2015-06-06T11:00:00Z,28.9818,-94.9186,2.0,21.67,11111222 
TABS,ioos:station:wmo:42043:1,2015-06-06T11:30:00Z,28.9818,-94.9186,2.0,21.42,11111222 
TABS,ioos:station:wmo:42043:1,2015-06-06T12:00:00Z,28.9818,-94.9186,2.0,21.53,11111222 
TABS,ioos:station:wmo:42043:1,2015-06-06T12:30:00Z,28.9818,-94.9186,2.0,21.29,11111222 
TABS,ioos:station:wmo:42043:1,2015-06-06T13:00:00Z,28.9818,-94.9186,2.0,20.66,11111222 
TABS,ioos:station:wmo:42043:1,2015-06-06T13:30:00Z,28.9818,-94.9186,2.0,20.71,11111222 
TABS,ioos:station:wmo:42043:1,2015-06-06T14:00:00Z,28.9818,-94.9186,2.0,20.61,11111222 
TABS,ioos:station:wmo:42043:1,2015-06-06T14:30:00Z,28.9818,-94.9186,2.0,20.47,11111222 
TABS,ioos:station:wmo:42043:1,2015-06-06T15:00:00Z,28.9818,-94.9186,2.0,20.41,11111222 
TABS,ioos:station:wmo:42043:1,2015-06-06T15:30:00Z,28.9818,-94.9186,2.0,20.54,11111222 